Westerly, RI

12:22 PM EDT on May 24, 2018 (GMT -0400)
Westerly State

Weather History for KWST - March, 2013

Change the Weather History Date:

Friday, March 1, 2013

  Actual Average (KGON) Record (KGON)
Temperature  
Mean Temperature 40 °F -  
Max Temperature 48 °F 43 °F 59 °F (1972)
Min Temperature 33 °F 25 °F 5 °F (1980)
Degree Days  
Heating Degree Days 24    
Moisture  
Dew Point 28 °F    
Average Humidity 66    
Maximum Humidity 96    
Minimum Humidity 41    
Precipitation  
Precipitation 0.00 in - - ()
Sea Level Pressure  
Sea Level Pressure 29.62 in    
Wind  
Wind Speed 5 mph (NNW)    
Max Wind Speed 13 mph    
Max Gust Speed 21 mph    
Visibility 10 miles    
Events      
Averages and records for this station are not official NWS values.
T = Trace of Precipitation, MM = Missing Value Source: NWS Daily Summary

Daily Weather History Graph

Daily Weather History Graph

Search for Another Location

Airport or City:

Astronomy

Mar. 01, 2013 Rise Set
Actual Time 6:21 AM EST 5:38 PM EST
Civil Twilight 5:53 AM EST 6:05 PM EST
Nautical Twilight 5:21 AM EST 6:37 PM EST
Astronomical Twilight 4:49 AM EST 7:10 PM EST
Moon 10:12 PM EST (3/1) 8:02 AM EST (3/1)
Length of Visible Light 12h 12m
Length of Day
11h 16m
Waning Gibbous, 83% of the Moon is Illuminated
Mar 1
Waning Gibbous
Mar 4
Last Quarter
Mar 11
New
Mar 19
First Quarter
Mar 27
Full

Hourly Weather History & Observations

Time (EST) Temp. Windchill Dew Point Humidity Pressure Visibility Wind Dir Wind Speed Gust Speed Precip Events Conditions
12:53 AM 37.9 °F 33.5 °F 35.1 °F 89% 29.54 in 10.0 mi NNW 5.8 mph - N/A   Clear
1:53 AM 37.0 °F 32.4 °F 34.0 °F 89% 29.55 in 10.0 mi NNW 5.8 mph - N/A   Scattered Clouds
2:53 AM 36.0 °F 31.1 °F 34.0 °F 93% 29.55 in 10.0 mi NNW 5.8 mph - N/A   Partly Cloudy
3:53 AM 36.0 °F - 34.0 °F 93% 29.56 in 10.0 mi Calm Calm - N/A   Mostly Cloudy
4:53 AM 36.0 °F - 33.1 °F 89% 29.57 in 10.0 mi Calm Calm - N/A   Clear
5:53 AM 34.0 °F - 33.1 °F 96% 29.58 in 10.0 mi Calm Calm - N/A   Clear
6:16 AM 33.8 °F - 32.0 °F 93% 29.59 in 10.0 mi Calm Calm - N/A   Mostly Cloudy
6:45 AM 35.6 °F 31.7 °F 32.0 °F 87% 29.59 in 9.0 mi NNW 4.6 mph - N/A   Scattered Clouds
9:53 AM 44.1 °F 37.7 °F 28.9 °F 55% 29.63 in 10.0 mi NNW 12.7 mph 20.7 mph N/A   Overcast
10:53 AM 45.0 °F 39.7 °F 26.1 °F 48% 29.63 in 10.0 mi North 10.4 mph 20.7 mph N/A   Overcast
11:53 AM 46.9 °F - 25.0 °F 42% 29.62 in 10.0 mi NNW 10.4 mph 17.3 mph N/A   Overcast
12:53 PM 48.0 °F - 25.0 °F 41% 29.61 in 10.0 mi NW 5.8 mph - N/A   Mostly Cloudy
2:53 PM 46.0 °F 43.1 °F 25.0 °F 44% 29.61 in 10.0 mi NW 5.8 mph 17.3 mph N/A   Mostly Cloudy
4:53 PM 44.1 °F 40.1 °F 26.1 °F 49% 29.64 in 10.0 mi NW 6.9 mph 16.1 mph N/A   Overcast
5:53 PM 42.1 °F 38.4 °F 25.0 °F 51% 29.66 in 10.0 mi NNW 5.8 mph - N/A   Overcast
6:53 PM 41.0 °F 35.2 °F 25.0 °F 53% 29.68 in 10.0 mi NNW 9.2 mph - N/A   Overcast
7:53 PM 41.0 °F 38.0 °F 25.0 °F 53% 29.69 in 10.0 mi North 4.6 mph - N/A   Overcast
8:53 PM 39.9 °F 33.9 °F 24.1 °F 53% 29.70 in 10.0 mi NNW 9.2 mph - N/A   Overcast
9:53 PM 39.9 °F 34.5 °F 23.0 °F 51% 29.70 in 10.0 mi NNW 8.1 mph - N/A   Overcast
10:53 PM 39.0 °F 34.8 °F 24.1 °F 55% 29.70 in 10.0 mi NNW 5.8 mph - N/A   Overcast
11:53 PM 37.9 °F 35.5 °F 23.0 °F 55% 29.70 in 10.0 mi WNW 3.5 mph - N/A   Overcast